STARLINK-34478

Last updated on Thu Jul 03 2025 00:02:07 GMT+0000 (Coordinated Universal Time)

1 64435U 25129Z 25183.58335648 -.01561162 00000+0 -18533-1 0 9996 2 64435 69.9995 351.5325 0003405 265.1468 48.6540 15.63978275 3574
UTC large
Height (km)
Speed (km/s)
/
Latitude / Longitude
Inclination (degrees)
Orbital Period (minutes)
Azimuth
Elevation
Range (km)
Doppler Factor

Next 0 passes for location: London (51.5072 / 0.1276)

Sorry there are no passes over London.